Regional Weather Roundup
Issued by NWS Newport/Morehead, NC

Current Version | Previous Version | Text Only | Print | Product List | Glossary Off
Versions: 1 2 3 4 5 6 7 8 9 10 11 12 13 14 15 16 17 18 19 20 21 22 23 24 25 26 27 28 29 30 31 32 33 34 35 36 37 38 39 40 41 42 43 44 45 46 47 48 49 50
000 ASUS42 KMHX 130213 RWRMHX WEATHER ROUNDUP FOR EASTERN NORTH CAROLINA NATIONAL WEATHER SERVICE NEWPORT/MOREHEAD CITY NC 900 PM EST TUE DEC 12 2017 NOTE: "FAIR" INDICATES FEW OR NO CLOUDS BELOW 12,000 FEET WITH NO SIGNIFICANT WEATHER AND/OR OBSTRUCTIONS TO VISIBILITY NCZ015>017-031-032-045>047-102-103-130300- NORTH COAST CITY SKY/WX TMP DP RH WIND PRES REMARKS EDENTON CLOUDY 45 29 55 NW21G37 29.66R ELIZABETH CITY CLOUDY 44 28 53 W20G26 29.62R KITTY HAWK CLEAR 46 31 56 NW15G23 29.56R MANTEO CLEAR 47 31 55 NW14G24 29.58R $$ NCZ045>047-081-094-103-104-130300- CENTRAL COAST CITY SKY/WX TMP DP RH WIND PRES REMARKS FRISCO PTCLDY 50 37 61 NW10G21 29.59R $$ NCZ095-097-098-100-101-130300- SOUTHERN COAST CITY SKY/WX TMP DP RH WIND PRES REMARKS BEAUFORT CLEAR 46 36 68 W9 29.63F CEDAR ISLAND NOT AVBL JACKSONVILLE MOCLDY 47 36 65 W18G24 29.67R PINEY ISLAND N/A N/A N/A N/A W9 29.61S WILMINGTON MOCLDY 46 38 73 W8 29.69R $$ NCZ011>013-027>030-043-044-078>080-089-090>093-098-130300- COASTAL PLAIN CITY SKY/WX TMP DP RH WIND PRES REMARKS AHOSKIE CLOUDY 39 24 53 W6 29.69R CLINTON PTCLDY 44 26 48 NW13G25 29.75R ELIZABETHTOWN NOT AVBL GOLDSBORO CLOUDY 41 25 52 NW15G24 29.71R GREENVILLE MOCLDY 37 32 81 N15G22 29.75R HAVELOCK PTCLDY 45 32 60 W9 29.65R KENANSVILLE CLOUDY 46 28 49 NW22G32 29.71R KINSTON CLOUDY 39 30 70 NW17G26 29.73R NEW BERN LGT RAIN 45 34 65 NW18G28 29.68R RICHLANDS CLOUDY 46 32 58 W9 29.69R ROCKY MOUNT MOCLDY 38 20 48 NW21G32 29.74R WASHINGTON CLOUDY 37 33 86 NW14G24 29.69R WHITEVILLE PTCLDY 48 32 52 W5 29.72R $$ AMZ130-135-150-152-154-156-158-170-250-252-270-ANZ085-086-088-633-658-670-130300- MARINE OBSERVATIONS STATION/POSITION TIME TEMP WIND PRES WAVE SWELL AIR SEA DIR/SP/G HT/PER HT/PER (UTC) (F) (DEG/KT/KT) (MB) (FT/S) (FT/S) CHESAPEAKE LIGHT NOT AVBL 64 E VA BEACH 0150 49 60 310/ 29/ 37 999.0 7/ 6 DUCK 0142 47 56 300/ 20/ 25 1000.9 2 E DUCK 0130 56 N/A 2/ 3 OREGON INLET 0148 290/ 16/ 21 N/A 13E OREGON INLT 0148 59 N/A 4/ 8 3/ 8 HATTERAS CG 0142 50 57 300/ 19/ 22 1001.7 DIAMOND BUOY 0150 55 72 300/ 27/ 33 1001.8 9/ 9 5/ 9 CAPE LOOKOUT 0200 290/ 17/ 21 1003.5 BEAUFORT LAB 0142 48 53 290/ 5/ 9 1003.4 30 SE NEW RVR IN 0108 56 63 290/ 21/ 27 1003.7 30 SE NEW RVR IN 0130 63 N/A 8/ 8 27 SE WRIGHTSVLE 0108 57 65 280/ 21/ 31 1004.9 5 SE WRIGHTSVLE 0108 53 58 280/ 14/ 17 1004.5 225 S CAPE HAT 0150 67 75 280/ 35/ 41 1002.6 15/ 9 41 SE CHARLESTON 0200 58 74 280/ 29/ 37 1008.4 $$

USA.gov is the U.S. government's official web portal to all federal, state and local government web resources and services.